[[{"header":{"parameterUnit":"m.s-1","parameterCategory":2,"la1":30.2991,"la2":30.254,"lo1":-89.0895,"lo2":-89.0444,"dy":0.0017,"dx":0.0017,"nx":28,"ny":28,"refTime":"2025-06-22T03:00:00:Z","depth":"0","parameterNumber":2,"parameterNumberName":"U-component_of_CURRENTS"},"data":[0,0,0,0,0,0,0,0,0,0,0,0,0,0,0,0,0,0,0,0,0,0,0,0,0,0,0,0,0,0,0,0,0,0,0,0,0,0,0,0,0,0,0,0,0,0,0,0,0,0,0,0,0,0,0,0,0,0,0.4194,0.4194,0,0.4262,0.4263,0.4264,0.4312,0.4312,0.4313,0.4313,0.4416,0.4418,0.4421,0,0,0,0,0,0,0,0,0,0,0,0,0,0.4132,0.4133,0.4194,0.4195,0.4195,0.4262,0.4263,0.4264,0.4312,0.4312,0.4313,0.4313,0.4415,0.4418,0.4421,0,0,0,0,0,0,0,0,0,0,0,0,0,0.4176,0.4133,0.4194,0.4226,0.423,0.4262,0.4263,0.4265,0.4312,0.4312,0.4313,0.4313,0.4414,0.4418,0.4422,0.4436,0,0,0.4433,0.4435,0,0,0,0,0,0,0,0,0.4174,0.4178,0.4221,0.4224,0.4228,0.4278,0.4279,0.4323,0.4312,0.4282,0.4313,0.4313,0.4372,0.438,0.4392,0.4441,0.4445,0.4433,0.4436,0.4437,0.4438,0,0,0,0,0,0,0,0.417,0.4176,0.4222,0.4222,0.4226,0.4247,0.4254,0.4288,0.4325,0.4284,0.4288,0.4294,0.4375,0.4388,0.4395,0.4447,0.4433,0.4436,0.4439,0.444,0.4508,0.4508,0,0,0,0,0,0,0.4158,0.4173,0.422,0.4224,0.42,0.4248,0.4255,0.4263,0.4324,0.4333,0.4293,0.4296,0.4382,0.4391,0.4399,0.4423,0.4437,0.4441,0.4443,0.4509,0.4508,0.4508,0,0,0,0,0,0,0.4157,0.4162,0.4217,0.4199,0.4208,0.4248,0.4256,0.4264,0.4277,0.433,0.4341,0.4299,0.4383,0.4394,0.4427,0.4427,0.4442,0.4446,0.4509,0.4509,0.4508,0.4468,0,0,0,0,0,0,0.4155,0.4161,0.4168,0.4198,0.4208,0.4231,0.4256,0.4265,0.428,0.4283,0.4338,0.4348,0.4384,0.4421,0.4431,0.4432,0.4449,0.451,0.4509,0.4508,0.447,0.4466,0.4463,0,0,0,0,0,0.4152,0.4158,0.4168,0.4174,0.4214,0.4231,0.4238,0.4269,0.4279,0.4283,0.4319,0.4347,0.4423,0.4424,0.4435,0.4438,0.451,0.4509,0.4508,0.4471,0.4467,0.4463,0,0,0,0,0,0,0.4142,0.4164,0.4175,0.419,0.4206,0.4239,0.4246,0.4263,0.4294,0.4299,0.4347,0.4359,0.4391,0.4414,0.4414,0.4453,0.4469,0.447,0.4437,0.4433,0.4429,0.4429,0.4452,0,0,0,0,0,0.4139,0.4149,0.417,0.4183,0.4184,0.4212,0.4224,0.4242,0.4271,0.4285,0.4322,0.4359,0.4395,0.4413,0.445,0.447,0.4509,0.4476,0.4472,0.4469,0.4475,0.4558,0.4563,0.4505,0.4505,0.4505,0,0,0.4141,0.4155,0.4162,0.4181,0.4194,0.4209,0.4221,0.4232,0.4252,0.4291,0.4325,0.4353,0.4399,0.4427,0.4441,0.4446,0.4497,0.4468,0.4465,0.4473,0.4558,0.4564,0.4569,0.4504,0.4504,0.4504,0,0,0.4147,0.4154,0.4161,0.4172,0.4187,0.4202,0.42,0.4224,0.4238,0.4266,0.4302,0.4326,0.4377,0.441,0.4433,0.4429,0.448,0.4435,0.4415,0.4496,0.4502,0.4508,0.4526,0.4535,0.4428,0.4428,0.4428,0,0.415,0.417,0.4166,0.4176,0.4194,0.4196,0.4213,0.4223,0.4259,0.427,0.4272,0.4342,0.4373,0.4415,0.4409,0.4424,0.4462,0.4429,0.4493,0.45,0.4508,0.4526,0.4535,0.4426,0.4426,0.4426,0.4426,0,0.4161,0.4182,0.4183,0.4201,0.421,0.4224,0.4233,0.4239,0.4248,0.4264,0.4293,0.4326,0.4369,0.4372,0.4391,0.4444,0.4449,0.4485,0.4507,0.4511,0.4529,0.454,0.4423,0.4423,0.4424,0.4425,0,0,0.417,0.4189,0.4195,0.4213,0.423,0.4238,0.4251,0.4269,0.4276,0.4289,0.4314,0.4346,0.4349,0.4375,0.4394,0.4443,0.4502,0.4477,0.4482,0.4499,0.4646,0.4456,0.4449,0.4565,0.4567,0.4569,0.4624,0,0.419,0.4222,0.4224,0.426,0.428,0.428,0.4292,0.4301,0.4304,0.432,0.4331,0.4359,0.4354,0.4369,0.4417,0.4492,0.4536,0.4482,0.4637,0.464,0.4476,0.4458,0.4158,0.4166,0.4635,0.4637,0.4638,0,0.4208,0.4235,0.4271,0.4301,0.4304,0.4316,0.4331,0.4341,0.4346,0.4348,0.4359,0.4369,0.441,0.4421,0.4535,0.4505,0.4573,0.4622,0.4627,0.4476,0.447,0.4246,0.4169,0.402,0.4656,0.4654,0.4653,0,0.423,0.4268,0.4301,0.4314,0.4338,0.4345,0.435,0.4351,0.4345,0.4365,0.436,0.441,0.4423,0.453,0.4573,0.4588,0.4698,0.4742,0.4628,0.4615,0.44,0.4361,0.4199,0.4852,0.4852,0.4852,0.4852,0,0.426,0.4287,0.431,0.433,0.4349,0.4361,0.4361,0.4366,0.4365,0.4351,0.4372,0.4367,0.446,0.4504,0.4589,0.4593,0.4714,0.4611,0.462,0.4367,0.4327,0.4221,0.4214,0.4854,0.4854,0.4853,0.4853,0,0.4268,0.4294,0.4325,0.4354,0.4356,0.4364,0.4349,0.4334,0.4347,0.4333,0.4337,0.4348,0.4374,0.4428,0.4569,0.4566,0.4472,0.4621,0.4266,0.4229,0.3945,0.3947,0.3749,0.3677,0.4501,0.4497,0.4493,0,0.4257,0.4282,0.4321,0.4309,0.4314,0.4319,0.43,0.4321,0.4302,0.4309,0.4297,0.4297,0.4274,0.4326,0.4289,0.4329,0.4293,0.4097,0.4064,0.3854,0.3868,0.3796,0.375,0.3764,0.3754,0.3747,0.3741,0,0.4221,0.4244,0.4256,0.4263,0.4251,0.4233,0.422,0.4213,0.4226,0.4212,0.4188,0.4179,0.4119,0.3939,0.3911,0.3933,0.382,0.3938,0.384,0.3351,0.3148,0.3105,0.3783,0.3672,0.3679,0.3684,0.3688,0.3691,0.416,0.4161,0.4179,0.4173,0.4158,0.4127,0.407,0.4056,0.4026,0.3929,0.4039,0.3903,0.3674,0.3546,0.3538,0.3197,0.3373,0.3068,0.3113,0.3079,0.2902,0.3378,0.3204,0.3208,0.3211,0.3214,0.3217,0,0.408,0.4088,0.407,0.4056,0.4,0.4032,0.3978,0.3869,0.378,0.3713,0.3657,0.3336,0.3068,0.2893,0.2528,0.239,0.2376,0.2301,0.2148,0.2178,0.2676,0.253,0.2053,0.2053,0.2053,0.2053,0.2054,0.2054,0.4033,0.4008,0.4009,0.3901,0.3871,0.3717,0.3659,0.3504,0.3397,0.3069,0.2827,0.2779,0.2503,0.2097,0.1779,0.1756,0.1709,0.1512,0.1703,0.2037,0.2112,0.2185,0.2041,0.1469,0.1468,0.1036,0.1033,0.103]},{"header":{"parameterUnit":"m.s-1","parameterCategory":2,"la1":30.2991,"la2":30.254,"lo1":-89.0895,"lo2":-89.0444,"dy":0.0017,"dx":0.0017,"nx":28,"ny":28,"refTime":"2025-06-22T03:00:00:Z","depth":"0","parameterNumber":3,"parameterNumberName":"V-component_of_CURRENTS"},"data":[0,0,0,0,0,0,0,0,0,0,0,0,0,0,0,0,0,0,0,0,0,0,0,0,0,0,0,0,0,0,0,0,0,0,0,0,0,0,0,0,0,0,0,0,0,0,0,0,0,0,0,0,0,0,0,0,0,0,-0.0197,-0.0197,0,-0.017,-0.017,-0.0169,-0.0164,-0.0165,-0.0165,-0.0165,-0.0118,-0.0116,-0.0115,0,0,0,0,0,0,0,0,0,0,0,0,0,-0.0225,-0.0225,-0.0197,-0.0197,-0.0196,-0.017,-0.017,-0.0169,-0.0164,-0.0165,-0.0165,-0.0165,-0.0118,-0.0117,-0.0115,0,0,0,0,0,0,0,0,0,0,0,0,0,-0.0208,-0.0225,-0.0197,-0.019,-0.0189,-0.017,-0.017,-0.0169,-0.0164,-0.0165,-0.0165,-0.0165,-0.0119,-0.0117,-0.0115,-0.0099,0,0,-0.0109,-0.0108,0,0,0,0,0,0,0,0,-0.0209,-0.0207,-0.0191,-0.019,-0.0189,-0.017,-0.0162,-0.0144,-0.0164,-0.0175,-0.0165,-0.0165,-0.0132,-0.0129,-0.0126,-0.0097,-0.0095,-0.0108,-0.0107,-0.0106,-0.0106,0,0,0,0,0,0,0,-0.021,-0.0208,-0.0188,-0.0191,-0.0189,-0.0181,-0.0179,-0.0159,-0.0154,-0.0174,-0.0173,-0.0168,-0.0132,-0.0128,-0.0125,-0.0094,-0.0108,-0.0107,-0.0105,-0.0105,0.0022,0.0024,0,0,0,0,0,0,-0.0212,-0.0209,-0.0189,-0.0187,-0.0198,-0.018,-0.0178,-0.0177,-0.0154,-0.0151,-0.0168,-0.0168,-0.0131,-0.0127,-0.0123,-0.0048,-0.0106,-0.0104,-0.0103,0.002,0.0023,0.0025,0,0,0,0,0,0,-0.0213,-0.0211,-0.019,-0.0196,-0.0193,-0.0179,-0.0178,-0.0176,-0.0171,-0.015,-0.0146,-0.0165,-0.0131,-0.0126,-0.0097,-0.0048,-0.0103,-0.0102,0.0017,0.0021,0.0024,0.0067,0,0,0,0,0,0,-0.0214,-0.0211,-0.0214,-0.0197,-0.0192,-0.0175,-0.0178,-0.0175,-0.0167,-0.0167,-0.0146,-0.0142,-0.0131,-0.01,-0.0095,-0.0046,-0.01,0.0015,0.0019,0.0023,0.0063,0.0072,0.0079,0,0,0,0,0,-0.0215,-0.0218,-0.0215,-0.0212,-0.0196,-0.0175,-0.0172,-0.0164,-0.0167,-0.0161,-0.0143,-0.0142,-0.0069,-0.0097,-0.0091,-0.0041,0.0013,0.0018,0.0022,0.006,0.007,0.0079,0,0,0,0,0,0,-0.0233,-0.0217,-0.0213,-0.0212,-0.0193,-0.0173,-0.017,-0.0163,-0.0146,-0.0146,-0.013,-0.0124,-0.0076,-0.0067,-0.0097,0.001,-0.0021,-0.0015,0.0005,0.0015,0.0023,0.0043,-0.0098,0,0,0,0,0,-0.0238,-0.0236,-0.0214,-0.0213,-0.0204,-0.0187,-0.0179,-0.0169,-0.015,-0.0144,-0.0126,-0.0095,-0.005,-0.0028,-0.0,0.0048,0.0073,0.0091,0.0099,0.0105,0.0127,0.0228,0.0247,0.0041,0.0041,0.0041,0,0,-0.0247,-0.0236,-0.0237,-0.0216,-0.0204,-0.0173,-0.0183,-0.0167,-0.013,-0.014,-0.0094,-0.0076,-0.0034,0.0025,0.005,0.0038,0.0167,0.0111,0.0116,0.0136,0.0235,0.0255,0.0273,0.0044,0.0043,0.0043,0,0,-0.0252,-0.025,-0.0245,-0.0221,-0.0196,-0.0173,-0.0166,-0.0141,-0.012,-0.0078,-0.0062,-0.0012,0.0032,0.0088,0.0121,0.0191,0.0199,0.0198,0.0262,0.0358,0.0376,0.0393,0.0403,0.042,0.021,0.021,0.021,0,-0.0268,-0.0245,-0.0239,-0.0214,-0.0183,-0.0168,-0.0133,-0.0104,-0.007,-0.0033,-0.0056,0.0059,0.0077,0.0192,0.0215,0.0213,0.0236,0.0217,0.0369,0.0386,0.0402,0.041,0.0428,0.0213,0.0212,0.0212,0.0212,0,-0.0255,-0.023,-0.0221,-0.0177,-0.0144,-0.0115,-0.0064,-0.003,-0.0005,0.0033,0.0127,0.0159,0.0236,0.0254,0.0253,0.0386,0.035,0.0359,0.0342,0.0426,0.0427,0.0445,0.0216,0.0215,0.0215,0.0214,0,0,-0.0308,-0.0229,-0.0226,-0.018,-0.0117,-0.0084,-0.0012,0.007,0.0133,0.0174,0.0273,0.0345,0.0359,0.0399,0.0416,0.0497,0.0599,0.0474,0.0478,0.0478,0.0758,0.0676,0.0687,0.0638,0.0642,0.0646,0.0695,0,-0.0298,-0.0234,-0.0194,-0.0112,-0.0064,-0.0006,0.0066,0.0143,0.0204,0.0298,0.037,0.0453,0.0419,0.0459,0.0539,0.0603,0.0658,0.0581,0.0684,0.0686,0.0601,0.0711,0.0663,0.0701,0.0713,0.0716,0.0718,0,-0.0293,-0.0243,-0.0165,-0.0048,-0.0023,0.0028,0.0161,0.0226,0.036,0.0408,0.0509,0.0555,0.0684,0.0636,0.0789,0.0742,0.075,0.078,0.0783,0.0714,0.0642,0.0632,0.0733,0.0676,0.0746,0.0744,0.0742,0,-0.0304,-0.0215,-0.0144,-0.0108,0.0015,0.0067,0.0133,0.0257,0.0338,0.0483,0.0558,0.0695,0.0778,0.0853,0.0887,0.0858,0.1034,0.1003,0.0926,0.0915,0.0901,0.0883,0.0964,0.1106,0.1106,0.1105,0.1105,0,-0.0285,-0.0222,-0.0148,-0.0101,-0.0005,0.0067,0.0183,0.0267,0.0401,0.0525,0.0607,0.0729,0.0844,0.0943,0.095,0.0995,0.1084,0.0964,0.0956,0.0906,0.0889,0.0857,0.0814,0.1107,0.1107,0.1106,0.1106,0,-0.0257,-0.0225,-0.0131,-0.0029,-0.0,0.0074,0.0205,0.0299,0.0401,0.0572,0.0625,0.0796,0.0926,0.0987,0.1115,0.1072,0.1085,0.1093,0.0976,0.0955,0.0811,0.0771,0.0848,0.0862,0.1038,0.1037,0.1036,0,-0.0209,-0.017,-0.0082,-0.0038,0.0015,0.0111,0.019,0.0296,0.0399,0.0615,0.0711,0.0869,0.1006,0.1121,0.1103,0.1105,0.1057,0.1002,0.0951,0.0826,0.0779,0.0756,0.0762,0.0925,0.0923,0.0921,0.092,0,-0.0104,-0.0098,-0.0029,0.0037,0.0104,0.0203,0.0312,0.0385,0.0536,0.067,0.0869,0.0989,0.1082,0.1112,0.1069,0.1038,0.0952,0.0966,0.0925,0.0778,0.0682,0.0681,0.0799,0.0907,0.0908,0.0909,0.091,0.091,-0.002,0.0025,0.007,0.014,0.0214,0.0311,0.0394,0.0513,0.0669,0.0881,0.0961,0.1146,0.1113,0.1078,0.1004,0.0808,0.0863,0.0742,0.0722,0.0724,0.0701,0.0736,0.078,0.078,0.0781,0.0781,0.0782,0,0.0076,0.0102,0.0176,0.0251,0.0344,0.0359,0.0499,0.0582,0.0758,0.0943,0.1096,0.1181,0.11,0.0984,0.0729,0.0599,0.0589,0.0535,0.0522,0.0559,0.0671,0.0627,0.0537,0.0537,0.0537,0.0537,0.0537,0.0537,0.0134,0.0188,0.0203,0.0347,0.041,0.0522,0.0597,0.0712,0.0846,0.1034,0.115,0.1233,0.1126,0.0727,0.0458,0.0407,0.0392,0.033,0.0378,0.0438,0.0457,0.0474,0.0427,0.0296,0.0296,0.0286,0.0285,0.0285]}],[{"header":{"parameterUnit":"m.s-1","parameterCategory":2,"la1":30.2991,"la2":30.254,"lo1":-89.0895,"lo2":-89.0444,"dy":0.0017,"dx":0.0017,"nx":28,"ny":28,"refTime":"2025-06-22T03:00:00:Z","depth":"2","parameterNumber":2,"parameterNumberName":"U-component_of_CURRENTS"},"data":[0,0,0,0,0,0,0,0,0,0,0,0,0,0,0,0,0,0,0,0,0,0,0,0,0,0,0,0,0,0,0,0,0,0,0,0,0,0,0,0,0,0,0,0,0,0,0,0,0,0,0,0,0,0,0,0,0,0,0.2159,0.216,0,0.2201,0.2201,0.2201,0.2183,0.2183,0.2182,0.2182,0.2233,0.2234,0.2236,0,0,0,0,0,0,0,0,0,0,0,0,0,0.2009,0.2012,0.2159,0.216,0.2161,0.2201,0.2201,0.2201,0.2183,0.2183,0.2182,0.2181,0.2232,0.2234,0.2236,0,0,0,0,0,0,0,0,0,0,0,0,0,0.2059,0.2013,0.2159,0.2161,0.2163,0.2201,0.2201,0.2201,0.2183,0.2183,0.2182,0.2181,0.2231,0.2234,0.2237,0.2267,0,0,0.2245,0.2246,0,0,0,0,0,0,0,0,0.2057,0.2064,0.216,0.2161,0.2163,0.2191,0.2167,0.2226,0.2183,0.2169,0.2182,0.2181,0.2224,0.2227,0.2228,0.227,0.2272,0.2245,0.2247,0.2248,0.2249,0,0,0,0,0,0,0,0.2053,0.2062,0.217,0.2161,0.2163,0.2142,0.2148,0.2177,0.2196,0.217,0.2171,0.2185,0.2224,0.2226,0.2229,0.2273,0.2245,0.2247,0.2249,0.225,0.2456,0.246,0,0,0,0,0,0,0.2065,0.206,0.2168,0.2171,0.2114,0.2146,0.2153,0.2178,0.2195,0.2199,0.2186,0.2184,0.2221,0.2226,0.2231,0.2354,0.2248,0.225,0.2252,0.2452,0.2457,0.2461,0,0,0,0,0,0,0.2061,0.2074,0.2167,0.212,0.2131,0.2151,0.2178,0.2179,0.2207,0.2208,0.221,0.2216,0.2221,0.2227,0.2281,0.2353,0.2252,0.2254,0.2448,0.2454,0.2459,0.2546,0,0,0,0,0,0,0.2057,0.2073,0.211,0.2122,0.2135,0.2195,0.218,0.2181,0.2218,0.2217,0.2235,0.2236,0.2221,0.2278,0.2284,0.2355,0.2256,0.2443,0.2451,0.2457,0.2538,0.2554,0.2568,0,0,0,0,0,0.2051,0.2094,0.2112,0.2126,0.2181,0.2197,0.2201,0.2207,0.2221,0.223,0.2255,0.2237,0.2329,0.2282,0.2289,0.2362,0.2439,0.2448,0.2457,0.2532,0.2551,0.2567,0,0,0,0,0,0,0.2051,0.2098,0.2117,0.2175,0.2192,0.2196,0.2219,0.2232,0.226,0.2271,0.227,0.2275,0.2353,0.2353,0.2302,0.2449,0.2389,0.24,0.2444,0.2462,0.2477,0.2436,0.2258,0,0,0,0,0,0.2073,0.2119,0.2145,0.2196,0.2206,0.2224,0.2242,0.2247,0.2269,0.228,0.2303,0.2343,0.2393,0.242,0.245,0.2524,0.2527,0.2585,0.2599,0.2611,0.2588,0.2721,0.2744,0.249,0.249,0.2489,0,0,0.2094,0.2124,0.2156,0.22,0.2215,0.2232,0.2231,0.2263,0.2295,0.2285,0.235,0.239,0.2424,0.2502,0.254,0.2511,0.2679,0.2623,0.2632,0.2601,0.2732,0.2757,0.2778,0.2496,0.2495,0.2494,0,0,0.2116,0.2178,0.2202,0.2221,0.2254,0.2266,0.2285,0.2313,0.2342,0.2407,0.2425,0.25,0.257,0.2606,0.2635,0.2755,0.2751,0.2795,0.2837,0.2968,0.2989,0.3007,0.3001,0.3019,0.2805,0.2806,0.2806,0,0.2142,0.2182,0.2211,0.2224,0.2261,0.2286,0.2314,0.2341,0.2391,0.244,0.2439,0.2595,0.2615,0.2729,0.2761,0.2785,0.282,0.2761,0.2985,0.3004,0.3021,0.3011,0.3029,0.2811,0.281,0.281,0.2809,0,0.2147,0.2203,0.2219,0.2256,0.2291,0.2327,0.2367,0.2419,0.2478,0.2516,0.265,0.2697,0.2789,0.2832,0.2821,0.2977,0.2944,0.2985,0.293,0.3052,0.3032,0.305,0.2818,0.2817,0.2815,0.2814,0,0,0.2163,0.2216,0.2229,0.2265,0.2324,0.2351,0.2424,0.2502,0.2562,0.265,0.2747,0.2855,0.2901,0.2936,0.2977,0.3071,0.3202,0.3079,0.3084,0.3049,0.3416,0.3127,0.3117,0.3314,0.3319,0.3322,0.3334,0,0.217,0.2213,0.2243,0.2315,0.2352,0.2417,0.2481,0.2559,0.2633,0.2723,0.2827,0.2922,0.294,0.3,0.311,0.3171,0.326,0.3187,0.3319,0.3319,0.3034,0.3133,0.2921,0.2893,0.3351,0.3354,0.3356,0,0.2166,0.2207,0.227,0.2374,0.2396,0.2442,0.2573,0.2627,0.2746,0.2809,0.2935,0.2995,0.3121,0.3138,0.3323,0.3288,0.3356,0.3401,0.3405,0.3109,0.3065,0.2859,0.2907,0.3384,0.3382,0.338,0.3378,0,0.2168,0.2242,0.2306,0.2337,0.2433,0.2497,0.2559,0.2669,0.2727,0.2863,0.2917,0.3085,0.3157,0.3313,0.3349,0.339,0.3504,0.3585,0.3384,0.336,0.3179,0.313,0.3751,0.3751,0.3751,0.3751,0.3751,0,0.2187,0.2248,0.2313,0.2353,0.2441,0.2508,0.2606,0.2684,0.2783,0.2844,0.2964,0.3026,0.3222,0.3286,0.3368,0.3351,0.3536,0.3367,0.3365,0.3193,0.3147,0.3582,0.3562,0.3752,0.3752,0.3752,0.3752,0,0.2214,0.2243,0.232,0.2416,0.2446,0.2516,0.2616,0.2673,0.2763,0.2843,0.2889,0.3008,0.3086,0.3177,0.3352,0.3315,0.3362,0.3323,0.3004,0.296,0.3133,0.3118,0.3149,0.3139,0.3131,0.3124,0.3118,0,0.2249,0.2283,0.2361,0.2391,0.2445,0.2532,0.2584,0.2672,0.271,0.2811,0.2837,0.292,0.2931,0.2959,0.2951,0.2969,0.3162,0.2736,0.2778,0.3086,0.3083,0.3081,0.3077,0.258,0.257,0.2562,0.2556,0,0.2321,0.2332,0.2377,0.2423,0.2474,0.252,0.2588,0.2591,0.2671,0.27,0.2696,0.2699,0.2694,0.2563,0.2506,0.2517,0.2705,0.2566,0.3064,0.2714,0.2538,0.2537,0.2556,0.2485,0.2492,0.2497,0.2501,0.2504,0.2371,0.2391,0.2408,0.2444,0.2493,0.2486,0.2459,0.2498,0.2487,0.244,0.2483,0.2373,0.2353,0.2143,0.2068,0.2019,0.225,0.2201,0.2234,0.2273,0.2154,0.1969,0.1781,0.1784,0.1787,0.1789,0.1791,0,0.2385,0.2393,0.2428,0.2405,0.2393,0.2464,0.2437,0.2329,0.2248,0.2219,0.2142,0.184,0.1717,0.174,0.1554,0.1496,0.1591,0.1449,0.1607,0.1674,0.1735,0.1598,0.1073,0.1071,0.1069,0.1067,0,0,0.239,0.2368,0.2343,0.2282,0.2299,0.2223,0.2181,0.2028,0.1936,0.1728,0.1618,0.1627,0.1654,0.1344,0.1289,0.1162,0.1426,0.1109,0.1683,0.1937,0.1996,0.2154,0.2012,0,0,0,0,0]},{"header":{"parameterUnit":"m.s-1","parameterCategory":2,"la1":30.2991,"la2":30.254,"lo1":-89.0895,"lo2":-89.0444,"dy":0.0017,"dx":0.0017,"nx":28,"ny":28,"refTime":"2025-06-22T03:00:00:Z","depth":"2","parameterNumber":3,"parameterNumberName":"V-component_of_CURRENTS"},"data":[0,0,0,0,0,0,0,0,0,0,0,0,0,0,0,0,0,0,0,0,0,0,0,0,0,0,0,0,0,0,0,0,0,0,0,0,0,0,0,0,0,0,0,0,0,0,0,0,0,0,0,0,0,0,0,0,0,0,-0.0056,-0.0055,0,0.0012,0.0013,0.0013,0.0006,0.0005,0.0004,0.0003,0.0007,0.0008,0.0008,0,0,0,0,0,0,0,0,0,0,0,0,0,-0.0126,-0.0125,-0.0056,-0.0055,-0.0054,0.0012,0.0013,0.0013,0.0006,0.0005,0.0004,0.0003,0.0006,0.0007,0.0009,0,0,0,0,0,0,0,0,0,0,0,0,0,-0.0082,-0.0125,-0.0056,-0.0048,-0.0047,0.0012,0.0013,0.0014,0.0006,0.0005,0.0004,0.0002,0.0006,0.0007,0.0009,0.0044,0,0,0.0013,0.0014,0,0,0,0,0,0,0,0,-0.0085,-0.008,-0.005,-0.0048,-0.0047,0.0001,-0.0011,0.0021,0.0007,-0.0016,0.0003,0.0002,0.0001,0.0003,0.0017,0.0045,0.0045,0.0013,0.0014,0.0015,0.0015,0,0,0,0,0,0,0,-0.0088,-0.0083,-0.0031,-0.0049,-0.0047,-0.0025,-0.0022,-0.0004,-0.0003,-0.0014,-0.0014,-0.0003,0.0001,0.0015,0.0017,0.0045,0.0013,0.0014,0.0015,0.0016,0.0085,0.0086,0,0,0,0,0,0,-0.0094,-0.0086,-0.0033,-0.0028,-0.0067,-0.0023,-0.0019,-0.0015,-0.0002,-0.0,-0.0002,-0.0003,0.0014,0.0015,0.0017,0.0054,0.0015,0.0016,0.0017,0.0084,0.0086,0.0087,0,0,0,0,0,0,-0.0096,-0.0091,-0.0035,-0.0054,-0.0045,-0.0021,-0.0016,-0.0012,-0.0011,0.0008,0.0008,-0.0005,0.0013,0.0015,0.0032,0.0054,0.0016,0.0018,0.0083,0.0085,0.0086,0.0133,0,0,0,0,0,0,-0.0099,-0.0092,-0.0097,-0.0054,-0.0044,-0.0006,-0.0014,-0.001,-0.0001,-0.0003,0.0006,0.0005,0.0012,0.003,0.0033,0.0055,0.0019,0.0082,0.0084,0.0086,0.013,0.0136,0.0141,0,0,0,0,0,-0.0102,-0.0092,-0.0098,-0.0091,-0.005,-0.0006,0.0001,0.0013,0.0,0.0007,0.0015,0.0004,0.0044,0.0032,0.0036,0.0059,0.0081,0.0083,0.0086,0.0128,0.0135,0.0141,0,0,0,0,0,0,-0.0115,-0.009,-0.0096,-0.0078,-0.0051,-0.0007,0.0005,0.0009,0.0023,0.0014,0.0021,0.0022,0.0047,0.0045,0.0032,0.0084,0.006,0.0063,0.0091,0.0097,0.0102,0.013,0.002,0,0,0,0,0,-0.0123,-0.0116,-0.0084,-0.007,-0.006,-0.0033,-0.0017,-0.0008,0.0015,0.0018,0.0024,0.0035,0.0065,0.0072,0.0089,0.0118,0.0134,0.0134,0.0139,0.0144,0.0169,0.0219,0.0232,0.0094,0.0094,0.0094,0,0,-0.012,-0.0108,-0.0102,-0.0074,-0.0054,-0.0013,-0.0028,-0.0001,0.0037,0.0018,0.0053,0.0052,0.0076,0.0112,0.0123,0.011,0.0187,0.0147,0.0151,0.0174,0.0223,0.0237,0.0249,0.0096,0.0096,0.0095,0,0,-0.0091,-0.0105,-0.0082,-0.0058,-0.003,-0.0009,-0.0006,0.0027,0.0037,0.0072,0.0075,0.0095,0.0117,0.0154,0.0175,0.0222,0.0214,0.0208,0.026,0.0309,0.0321,0.0332,0.0352,0.0364,0.0211,0.0211,0.0211,0,-0.0091,-0.0057,-0.0066,-0.0029,0.0002,-0.0007,0.0043,0.0064,0.0096,0.0125,0.0083,0.0157,0.0153,0.0243,0.0247,0.0238,0.0247,0.0233,0.0318,0.0329,0.0339,0.0357,0.037,0.0213,0.0213,0.0213,0.0212,0,-0.0033,-0.0007,0.0011,0.0051,0.0079,0.0116,0.0146,0.0167,0.0163,0.0191,0.0248,0.0249,0.0298,0.029,0.0279,0.0358,0.0333,0.0318,0.0303,0.0357,0.0371,0.0384,0.0217,0.0216,0.0215,0.0215,0,0,-0.0026,0.0039,0.0044,0.0084,0.0123,0.0161,0.0217,0.0283,0.0343,0.0338,0.0426,0.0439,0.0423,0.0446,0.0433,0.0459,0.0514,0.0411,0.0412,0.0435,0.06,0.0484,0.0486,0.0507,0.051,0.0512,0.0574,0,0.0024,0.0112,0.0127,0.0216,0.027,0.0285,0.035,0.0402,0.0432,0.0507,0.0514,0.0571,0.049,0.0507,0.0526,0.0534,0.0554,0.0498,0.0543,0.0545,0.0439,0.05,0.0455,0.0498,0.0586,0.0588,0.059,0,0.0084,0.0133,0.0227,0.0321,0.0344,0.0386,0.049,0.0546,0.0639,0.0665,0.0713,0.0717,0.0769,0.0679,0.0722,0.0685,0.0645,0.063,0.0632,0.0523,0.0453,0.0463,0.0518,0.0612,0.061,0.0608,0.0607,0,0.0125,0.021,0.0287,0.0317,0.0413,0.0452,0.0495,0.0588,0.0657,0.076,0.0822,0.0874,0.0908,0.0888,0.0817,0.0781,0.0851,0.0807,0.067,0.0661,0.0634,0.0617,0.084,0.084,0.0839,0.0839,0.0839,0,0.02,0.0254,0.0302,0.0353,0.0431,0.0483,0.0581,0.0643,0.0755,0.0868,0.0889,0.0989,0.0957,0.0979,0.0898,0.0821,0.0915,0.0702,0.0682,0.0643,0.0626,0.0734,0.072,0.0841,0.0841,0.0841,0.084,0,0.0248,0.0288,0.0367,0.0444,0.0458,0.0509,0.0598,0.0691,0.0782,0.0937,0.0972,0.1089,0.1107,0.1048,0.1035,0.092,0.0863,0.0803,0.0734,0.0702,0.0621,0.061,0.0688,0.0685,0.0682,0.0679,0.0678,0,0.029,0.0335,0.0402,0.0435,0.0459,0.0523,0.0587,0.0683,0.0797,0.1004,0.1106,0.1168,0.1212,0.1133,0.0958,0.0806,0.0822,0.066,0.0575,0.064,0.0613,0.0606,0.0599,0.0564,0.0561,0.0559,0.0557,0,0.0347,0.0354,0.0413,0.0478,0.0529,0.0608,0.0708,0.0802,0.0963,0.1085,0.1268,0.1309,0.1211,0.105,0.0815,0.0708,0.0676,0.0603,0.0757,0.0575,0.0519,0.0493,0.0491,0.0537,0.0539,0.0541,0.0542,0.0543,0.0363,0.0398,0.0469,0.0529,0.0591,0.0715,0.079,0.0922,0.1087,0.1264,0.1328,0.1332,0.1189,0.0825,0.0667,0.0476,0.0498,0.0426,0.0436,0.0448,0.0389,0.0327,0.0298,0.0299,0.0299,0.03,0.03,0,0.041,0.0451,0.0518,0.0628,0.0721,0.0732,0.0895,0.0971,0.1141,0.1233,0.1302,0.1111,0.094,0.0767,0.0432,0.0262,0.028,0.0229,0.0299,0.0318,0.0335,0.0273,0.0151,0.015,0.015,0.0149,0,0,0.0448,0.0528,0.0571,0.0731,0.079,0.0884,0.0962,0.1046,0.1103,0.1156,0.1117,0.1106,0.0917,0.0665,0.0468,0.0295,0.0341,0.0258,0.0385,0.0505,0.0524,0.0444,0.0367,0,0,0,0,0]}],[{"header":{"parameterUnit":"m.s-1","parameterCategory":2,"la1":30.2991,"la2":30.254,"lo1":-89.0895,"lo2":-89.0444,"dy":0.0017,"dx":0.0017,"nx":28,"ny":28,"refTime":"2025-06-22T03:00:00:Z","depth":"4","parameterNumber":2,"parameterNumberName":"U-component_of_CURRENTS"},"data":[0,0,0,0,0,0,0,0,0,0,0,0,0,0,0,0,0,0,0,0,0,0,0,0,0,0,0,0,0,0,0,0,0,0,0,0,0,0,0,0,0,0,0,0,0,0,0,0,0,0,0,0,0,0,0,0,0,0,0.0126,0.0125,0,0.0055,0.0054,0.0052,0.0014,0.0014,0.0015,0.0015,-0.004,-0.0041,-0.0043,0,0,0,0,0,0,0,0,0,0,0,0,0,0.0208,0.0206,0.0126,0.0125,0.0125,0.0055,0.0054,0.0052,0.0014,0.0014,0.0015,0.0015,-0.0039,-0.0041,-0.0043,0,0,0,0,0,0,0,0,0,0,0,0,0,0.0153,0.0205,0.0126,0.0102,0.0099,0.0055,0.0054,0.0052,0.0014,0.0014,0.0015,0.0016,-0.0038,-0.0041,-0.0044,-0.0074,0,0,-0.0052,-0.0054,0,0,0,0,0,0,0,0,0.0156,0.0149,0.0106,0.0103,0.0101,0.0049,0.0063,0.0012,0.0014,0.004,0.0015,0.0016,-0.0005,-0.0011,-0.0034,-0.0077,-0.0079,-0.0053,-0.0054,-0.0055,-0.0056,0,0,0,0,0,0,0,0.016,0.0152,0.0092,0.0105,0.0102,0.0088,0.0081,0.0052,0.001,0.0038,0.0036,0.0037,-0.0007,-0.0031,-0.0035,-0.008,-0.0053,-0.0055,-0.0057,-0.0058,0.0017,0.002,0,0,0,0,0,0,0.018,0.0155,0.0094,0.009,0.0137,0.0087,0.0078,0.006,0.001,0.0005,0.0037,0.0036,-0.0027,-0.0032,-0.0037,0.0054,-0.0055,-0.0058,-0.006,0.0013,0.0018,0.0022,0,0,0,0,0,0,0.0182,0.0174,0.0097,0.0127,0.0117,0.0085,0.0065,0.0059,0.0056,0.0011,0.0004,0.0045,-0.0026,-0.0033,-0.0038,0.0047,-0.0059,-0.0062,0.0009,0.0015,0.002,0.0155,0,0,0,0,0,0,0.0184,0.0175,0.0164,0.0128,0.0116,0.0087,0.0065,0.0057,0.0057,0.0055,0.0015,0.0009,-0.0026,-0.0033,-0.004,0.0042,-0.0064,0.0004,0.0011,0.0018,0.0145,0.0164,0.018,0,0,0,0,0,0.0187,0.0162,0.0163,0.0156,0.0103,0.0088,0.008,0.0056,0.0058,0.0056,0.0038,0.0011,0.0008,-0.0035,-0.0043,0.004,0.0001,0.0009,0.0017,0.0138,0.016,0.0179,0,0,0,0,0,0,0.0191,0.0156,0.0156,0.0122,0.012,0.0084,0.0078,0.0072,0.0053,0.0059,0.0019,0.0012,0.0056,0.0023,-0.0022,0.0089,0.0016,0.0023,0.0111,0.0132,0.0149,0.0185,-0.0066,0,0,0,0,0,0.019,0.0156,0.0148,0.0122,0.0132,0.0114,0.0106,0.0098,0.0081,0.0073,0.0053,0.0054,0.0079,0.0082,0.008,0.0107,0.0055,0.0171,0.0188,0.0203,0.0231,0.0227,0.0246,0.0049,0.0049,0.0049,0,0,0.0182,0.0161,0.0141,0.0121,0.0118,0.0129,0.0109,0.011,0.0124,0.0071,0.0084,0.0101,0.01,0.015,0.017,0.0132,0.0222,0.0213,0.0225,0.0246,0.0238,0.0256,0.0273,0.0054,0.0053,0.0052,0,0,0.0171,0.0145,0.0136,0.014,0.0149,0.014,0.0154,0.0148,0.0155,0.0176,0.0171,0.0231,0.0231,0.0263,0.028,0.0387,0.0313,0.0413,0.0524,0.052,0.0536,0.0549,0.0456,0.046,0.0421,0.0422,0.0422,0,0.0181,0.0154,0.0134,0.0148,0.0154,0.0158,0.0178,0.0184,0.0176,0.0216,0.0204,0.0303,0.0296,0.0395,0.0459,0.0428,0.0384,0.0438,0.054,0.0552,0.0563,0.0465,0.0468,0.0429,0.0428,0.0428,0.0427,0,0.0176,0.0168,0.0171,0.0182,0.0187,0.0199,0.0223,0.0258,0.0288,0.0315,0.0427,0.0437,0.0514,0.0542,0.0539,0.0654,0.0578,0.0556,0.0479,0.0591,0.048,0.048,0.044,0.0437,0.0435,0.0433,0,0,0.0176,0.017,0.0182,0.0192,0.0209,0.0216,0.0273,0.0336,0.0409,0.0458,0.0559,0.0659,0.0712,0.0739,0.0756,0.0777,0.0808,0.0728,0.0724,0.062,0.0742,0.0757,0.0756,0.0808,0.081,0.0812,0.0612,0,0.0195,0.0215,0.0211,0.0239,0.0245,0.0285,0.0338,0.0403,0.0472,0.0568,0.0658,0.0754,0.077,0.0841,0.0877,0.0842,0.0825,0.086,0.0665,0.0658,0.0647,0.0766,0.0819,0.0612,0.0612,0.0612,0.0611,0,0.0201,0.0204,0.0234,0.0265,0.0286,0.0327,0.0438,0.0486,0.063,0.0698,0.0837,0.0893,0.1,0.0972,0.0963,0.0989,0.0896,0.0833,0.0823,0.0802,0.0679,0.0492,0.061,0.061,0.061,0.061,0.0611,0,0.0184,0.0223,0.0243,0.0252,0.0299,0.0369,0.043,0.0557,0.0632,0.0801,0.0877,0.1,0.1065,0.1024,0.0972,0.0966,0.0896,0.0839,0.0733,0.0725,0.0699,0.0687,0.0792,0.0793,0.0793,0.0794,0.0794,0,0.0181,0.0196,0.0256,0.0263,0.0339,0.0383,0.0508,0.0601,0.0747,0.0841,0.096,0.103,0.1094,0.108,0.0988,0.0892,0.0898,0.0782,0.0717,0.0751,0.0749,0.0693,0.0684,0.0786,0.0788,0.0789,0.0791,0,0.0143,0.0177,0.0194,0.0277,0.0321,0.0387,0.0545,0.0632,0.0768,0.0892,0.0953,0.1072,0.1074,0.1066,0.0978,0.0906,0.0795,0.0727,0.0737,0.0667,0.0591,0.0591,0.0582,0.0582,0.0582,0.0581,0.0581,0,0.0119,0.0119,0.0202,0.0242,0.0295,0.0408,0.0484,0.064,0.0723,0.0882,0.0921,0.1011,0.1066,0.0946,0.0927,0.0774,0.0743,0.0647,0.0686,0.0654,0.0588,0.0589,0.059,0.0581,0.0581,0.0581,0.0581,0,0.0056,0.0096,0.0119,0.0207,0.0293,0.0371,0.0501,0.0558,0.0716,0.084,0.0922,0.0952,0.095,0.0929,0.0866,0.073,0.0722,0.0644,0.0642,0.0677,0.0652,0.0588,0.0589,0.058,0.058,0.058,0.0581,0,0.0021,0.0028,0.0079,0.017,0.0251,0.0316,0.0391,0.0502,0.0607,0.0809,0.081,0.0869,0.096,0.0894,0.0796,0.0755,0.0704,0.063,0.0628,0.0628,0.0748,0.0729,0.0656,0,0,0,0,0,-0.0009,0.0007,0.0049,0.0132,0.0207,0.028,0.0384,0.0455,0.0606,0.0665,0.0767,0.0775,0.0767,0.0764,0.0716,0.0722,0.0646,0.0654,0.0547,0.0577,0.0578,0.0721,0,0,0,0,0,0,-0.003,-0.0003,0.002,0.0086,0.0151,0.0229,0.0295,0.0388,0.0443,0.0602,0.0604,0.073,0.0714,0.0815,0.0714,0.0707,0.0616,0.0699,0.0696,0.0577,0.0577,0.0578,0.0726,0,0,0,0,0]},{"header":{"parameterUnit":"m.s-1","parameterCategory":2,"la1":30.2991,"la2":30.254,"lo1":-89.0895,"lo2":-89.0444,"dy":0.0017,"dx":0.0017,"nx":28,"ny":28,"refTime":"2025-06-22T03:00:00:Z","depth":"4","parameterNumber":3,"parameterNumberName":"V-component_of_CURRENTS"},"data":[0,0,0,0,0,0,0,0,0,0,0,0,0,0,0,0,0,0,0,0,0,0,0,0,0,0,0,0,0,0,0,0,0,0,0,0,0,0,0,0,0,0,0,0,0,0,0,0,0,0,0,0,0,0,0,0,0,0,0.0403,0.0403,0,0.0429,0.0429,0.0429,0.0472,0.0473,0.0474,0.0475,0.0591,0.0594,0.0596,0,0,0,0,0,0,0,0,0,0,0,0,0,0.0271,0.0274,0.0403,0.0403,0.0404,0.0429,0.0429,0.0429,0.0472,0.0473,0.0474,0.0475,0.0591,0.0593,0.0596,0,0,0,0,0,0,0,0,0,0,0,0,0,0.0316,0.0275,0.0403,0.0428,0.0431,0.0429,0.0429,0.0429,0.0472,0.0473,0.0474,0.0476,0.059,0.0593,0.0596,0.0593,0,0,0.0607,0.0609,0,0,0,0,0,0,0,0,0.0314,0.0321,0.0424,0.0427,0.0429,0.0449,0.0425,0.0489,0.0472,0.0456,0.0475,0.0476,0.0551,0.0558,0.0558,0.0599,0.0604,0.0607,0.061,0.0611,0.0612,0,0,0,0,0,0,0,0.0311,0.0319,0.0413,0.0425,0.0428,0.0397,0.0406,0.0436,0.0498,0.0457,0.0461,0.0464,0.0554,0.0555,0.0562,0.0605,0.0607,0.0611,0.0613,0.0614,0.0632,0.0631,0,0,0,0,0,0,0.0314,0.0317,0.0412,0.0414,0.0374,0.0399,0.0409,0.0441,0.0496,0.0505,0.0463,0.0466,0.0548,0.0558,0.0566,0.0586,0.0611,0.0614,0.0616,0.0634,0.0632,0.063,0,0,0,0,0,0,0.0311,0.0323,0.0411,0.0364,0.0373,0.0401,0.0436,0.0441,0.0459,0.0499,0.051,0.0477,0.055,0.0561,0.0605,0.059,0.0616,0.0619,0.0636,0.0633,0.0631,0.0613,0,0,0,0,0,0,0.0308,0.0323,0.0345,0.0366,0.0376,0.0422,0.0435,0.0441,0.0458,0.0462,0.0515,0.0526,0.0551,0.06,0.0609,0.0596,0.0622,0.0638,0.0635,0.0632,0.0616,0.061,0.0606,0,0,0,0,0,0.0303,0.0333,0.0346,0.0357,0.0408,0.0423,0.0425,0.0447,0.0457,0.0467,0.0501,0.0525,0.0585,0.0603,0.0613,0.0601,0.0639,0.0636,0.0632,0.0618,0.0611,0.0606,0,0,0,0,0,0,0.0288,0.034,0.0356,0.0401,0.0415,0.0431,0.0437,0.045,0.0481,0.0492,0.0528,0.0542,0.0565,0.0581,0.0599,0.0589,0.0606,0.0605,0.0591,0.0586,0.0581,0.0588,0.0625,0,0,0,0,0,0.0294,0.0334,0.0363,0.0398,0.0404,0.042,0.0428,0.0446,0.0472,0.0486,0.0525,0.0546,0.0551,0.0572,0.0588,0.0603,0.0572,0.059,0.0585,0.0581,0.0589,0.0484,0.047,0.0618,0.0618,0.0618,0,0,0.0299,0.033,0.0355,0.0396,0.0406,0.0418,0.0429,0.0448,0.0461,0.0495,0.0534,0.0543,0.055,0.0559,0.0569,0.0579,0.0525,0.0576,0.0573,0.0584,0.0478,0.0464,0.0451,0.0616,0.0616,0.0617,0,0,0.0309,0.0353,0.0378,0.0392,0.0414,0.0423,0.0431,0.0458,0.0473,0.0508,0.0513,0.0507,0.0558,0.0534,0.053,0.0503,0.05,0.0512,0.0504,0.0401,0.0388,0.0376,0.0334,0.0319,0.0511,0.0511,0.0511,0,0.0309,0.0358,0.0381,0.0397,0.0409,0.0426,0.044,0.045,0.0493,0.0496,0.0524,0.0518,0.053,0.0489,0.0488,0.0491,0.0462,0.0533,0.0394,0.0382,0.037,0.033,0.0313,0.051,0.051,0.051,0.051,0,0.0333,0.0368,0.0378,0.0412,0.0419,0.0441,0.0452,0.0474,0.0497,0.0499,0.0487,0.0484,0.0484,0.0463,0.0486,0.0403,0.0422,0.0398,0.0413,0.0354,0.0315,0.0298,0.0508,0.0509,0.0509,0.0509,0,0,0.0361,0.0391,0.04,0.0412,0.0436,0.0446,0.0459,0.0467,0.047,0.0484,0.0464,0.0448,0.0448,0.0441,0.0431,0.0348,0.0248,0.036,0.0355,0.0327,0.007,0.0133,0.012,0.0206,0.0202,0.0199,0.0083,0,0.0378,0.0403,0.0418,0.0443,0.0454,0.047,0.0482,0.0486,0.0486,0.0476,0.0426,0.0426,0.0436,0.0447,0.0356,0.0272,0.0201,0.0286,0.0126,0.0122,0.0189,0.01,0.0188,0.007,0.0066,0.0064,0.0061,0,0.0404,0.0419,0.0443,0.0462,0.0469,0.05,0.0512,0.0523,0.0494,0.0489,0.045,0.0437,0.0352,0.0361,0.0175,0.0238,0.0173,0.0095,0.0087,0.0143,0.0151,0.0135,0.003,0.0033,0.0035,0.0037,0.0039,0,0.0408,0.0439,0.046,0.0472,0.0495,0.0529,0.0556,0.0545,0.0553,0.0514,0.0503,0.0398,0.0373,0.0229,0.0139,0.0152,-0.0078,-0.0098,-0.0108,-0.0102,-0.0111,-0.0097,-0.0239,-0.0239,-0.0238,-0.0238,-0.0238,0,0.0424,0.0444,0.0483,0.0502,0.0553,0.056,0.0601,0.0609,0.0596,0.0579,0.0534,0.048,0.0341,0.0224,0.0108,-0.0037,-0.0102,-0.0119,-0.0146,-0.0112,-0.0097,-0.0122,-0.0106,-0.0242,-0.0241,-0.024,-0.024,0,0.0423,0.0445,0.0482,0.0532,0.0563,0.0611,0.0677,0.0675,0.0679,0.0649,0.0654,0.0543,0.0387,0.0251,0.0021,-0.0044,-0.0214,-0.0236,-0.0148,-0.0166,-0.016,-0.0145,-0.0298,-0.0297,-0.0296,-0.0296,-0.0295,0,0.0419,0.0439,0.0514,0.0554,0.0599,0.0671,0.07,0.0731,0.0725,0.0667,0.0634,0.053,0.0443,0.0165,0.0006,-0.0202,-0.021,-0.0262,-0.025,-0.0164,-0.0176,-0.0161,-0.0147,-0.0294,-0.0294,-0.0294,-0.0294,0,0.0413,0.0453,0.0478,0.0563,0.0628,0.0677,0.0737,0.0743,0.074,0.0739,0.0643,0.0534,0.036,0.0163,0.0053,-0.0117,-0.0231,-0.0256,-0.0259,-0.0248,-0.0162,-0.0171,-0.0158,-0.0291,-0.0292,-0.0292,-0.0292,0,0.041,0.043,0.0474,0.0554,0.0623,0.0663,0.0702,0.0704,0.0718,0.0688,0.0638,0.047,0.0395,0.0205,0.0049,-0.0055,-0.0096,-0.0116,-0.0127,-0.0132,-0.0036,0.01,0.0011,0,0,0,0,0,0.0398,0.0407,0.0455,0.0531,0.0597,0.0658,0.0692,0.0711,0.0721,0.0674,0.0683,0.0531,0.0334,0.0211,0.0114,0.0026,-0.0137,-0.0092,-0.0172,-0.0278,-0.0281,-0.019,0,0,0,0,0,0,0.038,0.0412,0.0428,0.0496,0.0559,0.0624,0.0658,0.0667,0.0656,0.0657,0.0543,0.054,0.0326,0.0408,0.0125,0.0086,0.0029,-0.0176,-0.0177,-0.0276,-0.0279,-0.0281,-0.0189,0,0,0,0,0]}]]